Location: Hope
(40.9110°N, 74.9680°W)
Time: 11:17:03
(UTC-05:00)

Hubble Space Telescope - Visible Passes

Search period start: 08 December 2022 00:00
Search period end: 18 December 2022 00:00
Orbit: 530 x 534 km, 28.5° (Epoch: 08 December)

Date Brightness Start Highest point End Pass type
(mag) Time Alt. Az. Time Alt. Az. Time Alt. Az.
08 Dec 3.4 06:29:00 10° SSW 06:31:04 14° S 06:33:07 10° SE visible
09 Dec 3.3 06:16:07 10° SSW 06:18:17 14° S 06:20:27 10° SE visible
10 Dec 3.3 06:03:18 10° SSW 06:05:30 14° S 06:07:42 10° SSE visible
11 Dec 3.2 05:50:31 10° SW 05:52:43 14° S 05:54:54 10° SSE visible
12 Dec 3.2 05:37:46 10° SW 05:39:54 14° S 05:42:02 10° SSE visible
13 Dec 3.1 05:25:45 12° SSW 05:27:05 13° S 05:29:06 10° SSE visible
14 Dec 3.2 05:13:49 12° SSW 05:14:17 13° S 05:16:05 10° SSE visible
15 Dec 3.3 05:01:53 12° S 05:01:53 12° S 05:02:56 10° S visible
